#timestamp,LO_Frequency,Hit,StdDev 
1582718415.0,286047002.3,N
1582718415.9,286047002.3,N
1582718435.8,286047000.5,N
1582718455.6,286046999.1,N
1582718475.5,286046996.5,N
1582718495.3,286046995.4,N
1582718515.1,286046998.0,N
1582718535.9,286046995.6,N
1582718555.7,286046997.6,N
1582718575.5,286047000.8,N
1582718595.4,286046999.5,N
1582718615.2,286047001.1,N
1582718635.1,286047000.6,N
1582718636.0,286047000.6,N
1582718655.8,286047000.2,N
1582718675.6,286046998.3,N
1582718695.5,286047000.9,N
1582718715.3,286047000.7,N
1582718735.2,286046999.0,N
1582718755.9,286046999.7,N
1582718775.8,286047000.7,N
1582718795.6,286047002.7,N
1582718815.4,286047002.1,N
1582718835.3,286047000.9,N
1582718855.1,286047002.8,N
1582718875.8,286047000.9,N
1582718895.7,286046998.3,N
1582718915.5,286046998.3,N
1582718935.4,286046998.3,N
1582718955.2,286046999.4,N
1582718975.0,286046999.3,N
1582718975.9,286046999.3,N
1582718995.8,286046998.8,N
1582719015.6,286046998.9,N
1582719035.4,286046997.3,N
1582719055.3,286046999.6,N
1582719075.1,286047000.7,N
1582719095.9,286046996.8,N
1582719115.7,286046997.0,N
1582719135.5,286046998.8,N
1582719155.4,286046996.7,N
1582719175.2,286047000.7,N
1582719195.1,286047000.4,N
1582719196.0,286047000.4,N
1582719215.8,286046999.5,N
1582719235.6,286046997.0,N
1582719255.5,286046996.9,N
1582719275.3,286046996.9,N
1582719295.1,286046995.0,N
1582719315.9,286046997.3,N
1582719335.7,286046997.6,N
1582719355.6,286046998.0,N
1582719375.4,286046997.6,N
1582719395.2,286046995.1,N
1582719415.1,286046995.6,N
1582719416.0,286046995.6,N
1582719435.8,286046995.2,Y
1582719455.7,286046997.4,P
1582719475.5,286046995.0,P
1582719495.3,286046997.8,N
1582719515.2,286046997.5,N
1582719535.0,286046997.9,N
1582719535.9,286046997.9,N
1582719555.8,286046997.8,N
1582719575.6,286046996.7,Y
1582719595.4,286047001.0,P
1582719615.3,286047001.0,N
1582719635.1,286047002.8,N
1582719655.8,286047002.7,N
1582719675.7,286047002.7,N
1582719695.5,286047002.4,N
1582719715.4,286047002.7,N
1582719735.2,286047002.8,N
1582719755.0,286047000.4,N
1582719755.9,286047000.4,N
1582719775.8,286047001.2,N
1582719795.6,286047001.0,N
1582719815.5,286047000.5,N
1582719835.3,286047000.7,N
1582719855.1,286047000.1,N
1582719875.9,286047001.0,N
1582719895.7,286047000.0,N
1582719915.5,286046998.4,N
1582719935.4,286046998.8,N
1582719955.2,286046998.5,N
1582719975.1,286046996.5,N
1582719976.0,286046996.5,N
1582719995.8,286046998.5,N
1582720015.6,286046999.0,N
1582720035.5,286046997.0,N
1582720055.3,286046997.7,N
1582720075.2,286046996.8,N
1582720095.9,286046999.6,N
1582720115.7,286046996.6,N
1582720135.6,286046997.1,N
1582720155.4,286046997.2,N
1582720175.2,286046996.9,N
1582720195.1,286046997.4,N
1582720196.0,286046997.4,N
1582720215.8,286046996.5,N
1582720235.7,286046997.1,N
1582720255.5,286046997.2,N
1582720275.3,286046998.0,N
1582720295.2,286046995.0,Y
1582720315.0,286046995.5,P
1582720315.9,286046995.5,P
1582720335.8,286046996.6,N
1582720355.6,286046996.8,N
1582720375.5,286046996.6,Y
1582720395.3,286047002.7,P
1582720415.1,286046999.8,N
1582720435.9,286046999.7,N
1582720455.7,286046999.8,N
1582720475.5,286047000.2,N
1582720495.4,286047000.8,N
1582720515.2,286047000.3,N
1582720535.1,286047000.1,N
1582720536.0,286047000.1,N
1582720555.8,286047000.4,N
1582720575.6,286047000.0,N
1582720595.5,286047000.5,N
1582720615.3,286046998.2,N
1582720635.1,286046999.2,N
1582720655.9,286046996.5,N
1582720675.7,286046996.6,N
1582720695.6,286046996.9,N
1582720715.4,286046999.4,N
1582720735.2,286046996.9,N
1582720755.1,286046998.1,N
1582720756.0,286046998.1,N
1582720775.8,286047000.3,N
1582720795.7,286046998.3,N
1582720815.5,286047000.5,N
1582720835.3,286047000.9,N
1582720855.2,286046998.8,N
1582720875.0,286046998.7,N
1582720875.9,286046998.7,N
1582720895.8,286046999.4,N
1582720915.6,286046999.3,N
1582720935.4,286046996.6,N
1582720955.3,286046996.5,N
1582720975.1,286046999.3,N
1582720995.8,286046999.5,N
1582721015.7,286046999.2,N
1582721035.5,286046997.0,N
1582721055.4,286046997.2,N
1582721075.3,286046999.1,N
1582721095.1,286046998.8,N
1582721096.0,286046998.8,N
1582721115.8,286046998.7,N
1582721135.7,286046998.8,N
1582721155.5,286046999.1,N
1582721175.3,286046999.6,N
1582721195.2,286046999.4,N
1582721215.0,286046996.7,N
1582721215.9,286046996.7,N
1582721235.8,286046997.1,N
1582721255.6,286046995.0,Y
1582721275.5,286046998.8,P
1582721295.3,286047001.2,P
1582721315.1,286046999.8,N
1582721335.9,286047000.8,N
1582721355.7,286046998.8,N
1582721375.5,286047001.1,N
1582721395.4,286047000.8,N
1582721415.2,286046998.3,N
1582721435.1,286047000.8,N
1582721436.0,286047000.8,N
1582721455.8,286046998.5,N
1582721475.6,286047000.7,N
1582721495.5,286046999.7,N
1582721515.3,286047002.3,N
1582721535.2,286046999.3,N
1582721555.9,286046998.3,N
1582721575.7,286046998.8,N
1582721595.6,286046998.7,N
1582721615.4,286046997.1,N
1582721635.2,286046998.0,N
1582721655.1,286046995.0,Y
1582721656.0,286046995.0,P
1582721675.8,286046996.7,N
1582721695.7,286046999.6,N
1582721715.5,286046998.7,N
1582721735.3,286046998.5,N
1582721755.2,286047001.1,N
1582721775.0,286047000.9,N
1582721775.9,286047000.9,N
1582721795.8,286047000.0,N
1582721815.6,286046999.8,N
1582721835.5,286047001.9,N
1582721855.3,286047002.8,N
1582721875.1,286047002.7,N
1582721895.9,286047002.5,N
1582721915.7,286047000.6,N
1582721935.6,286047001.9,N
1582721955.4,286047004.0,N
1582721975.2,286047001.4,N
1582721995.1,286047002.3,N
1582721996.0,286047002.3,N
